Location: *
(34.0486°S, 61.7880°E)
Time: 19:53:33
(UTC+00:00)

Cosmos 1953 - Pass Details

Date: 01 April 2020
Orbit: 540 x 557 km, 82.5° (Epoch: 27 May)

Event Time Altitude Azimuth Distance (km) Brightness Sun altitude
Rises 15:00:34 0° 186° (S) 2,748 6.0 -16.0°
Reaches altitude 10° 15:02:46 10° 186° (S) 1,843 5.1 -16.4°
Maximum altitude 15:06:49 86° 97° (E) 557 2.2 -17.3°
Drops below altitude 10° 15:10:48 10° 7° (N) 1,807 4.8 -18.1°
Sets 15:12:56 0° 6° (N) 2,688 5.7 -18.5°
